TimeBST,TemperatureF,Dew PointF,Humidity,Sea Level PressureIn,VisibilityMPH,Wind Direction,Wind SpeedMPH,Gust SpeedMPH,PrecipitationIn,Events,Conditions,WindDirDegrees,DateUTC
12:20 AM,62.6,55.4,77,30.45,-9999.0,NE,6.9,-,N/A,,Clear,50,2013-07-08 23:20:00
12:50 AM,62,53,65,30.46,22,NE,9.2,,,,,50,2013-07-08 23:50:00
12:50 AM,62.6,55.4,77,30.45,-9999.0,NE,8.1,-,N/A,,Clear,50,2013-07-08 23:50:00
1:20 AM,60.8,55.4,82,30.45,-9999.0,ENE,6.9,-,N/A,,Clear,60,2013-07-09 00:20:00
1:50 AM,60.8,55.4,82,30.45,6.2,NE,6.9,-,N/A,,Unknown,50,2013-07-09 00:50:00
2:20 AM,59.0,53.6,82,30.45,6.2,NE,8.1,-,N/A,,Unknown,40,2013-07-09 01:20:00
2:50 AM,59.0,51.8,77,30.45,6.2,NE,6.9,-,N/A,,Unknown,40,2013-07-09 01:50:00
3:20 AM,57.2,50.0,77,30.45,-9999.0,NE,5.8,-,N/A,,Clear,40,2013-07-09 02:20:00
3:50 AM,57,49,68,30.44,15,NNE,8.1,,,,,30,2013-07-09 02:50:00
3:50 AM,57.2,50.0,77,30.42,-9999.0,NE,8.1,-,N/A,,Clear,40,2013-07-09 02:50:00
4:20 AM,55.4,51.8,88,30.42,-9999.0,NE,6.9,-,N/A,,Clear,40,2013-07-09 03:20:00
4:50 AM,55.4,51.8,88,30.42,-9999.0,NE,6.9,-,N/A,,Clear,40,2013-07-09 03:50:00
5:20 AM,53.6,50.0,88,30.42,-9999.0,NE,6.9,-,N/A,,Clear,40,2013-07-09 04:20:00
5:50 AM,53.6,50.0,88,30.42,-9999.0,NE,5.8,-,N/A,,Clear,40,2013-07-09 04:50:00
6:20 AM,55.4,50.0,82,30.42,-9999.0,NE,8.1,-,N/A,,Clear,50,2013-07-09 05:20:00
6:50 AM,57,48,63,30.43,19,NNE,5.8,,,,,20,2013-07-09 05:50:00
6:50 AM,55.4,50.0,82,30.42,-9999.0,NE,8.1,-,N/A,,Clear,50,2013-07-09 05:50:00
7:20 AM,57.2,48.2,72,30.42,-9999.0,ENE,8.1,-,N/A,,Clear,60,2013-07-09 06:20:00
7:50 AM,59.0,46.4,63,30.42,-9999.0,NE,8.1,-,N/A,,Clear,50,2013-07-09 06:50:00
8:20 AM,60.8,46.4,59,30.42,-9999.0,NE,8.1,-,N/A,,Clear,50,2013-07-09 07:20:00
8:50 AM,62.6,44.6,52,30.42,-9999.0,NE,9.2,-,N/A,,Clear,50,2013-07-09 07:50:00
9:20 AM,64.4,42.8,45,30.42,-9999.0,NE,8.1,-,N/A,,Clear,40,2013-07-09 08:20:00
9:50 AM,66,41,29,30.40,25,NE,8.1,,,,,40,2013-07-09 08:50:00
9:50 AM,66.2,41.0,40,30.39,-9999.0,ENE,8.1,-,N/A,,Clear,60,2013-07-09 08:50:00
10:20 AM,68.0,41.0,37,30.39,-9999.0,NNE,8.1,-,N/A,,Clear,30,2013-07-09 09:20:00
10:50 AM,69.8,39.2,33,30.39,-9999.0,NE,8.1,-,N/A,,Clear,50,2013-07-09 09:50:00
11:20 AM,71.6,39.2,31,30.39,-9999.0,ENE,8.1,-,N/A,,Clear,60,2013-07-09 10:20:00
11:50 AM,73.4,39.2,29,30.39,-9999.0,ENE,9.2,-,N/A,,Clear,60,2013-07-09 10:50:00
12:20 PM,75.2,39.2,27,30.36,-9999.0,ENE,8.1,-,N/A,,Clear,60,2013-07-09 11:20:00
12:50 PM,76,38,15,30.36,22,NE,9.2,,,,,40,2013-07-09 11:50:00
12:50 PM,75.2,37.4,25,30.36,-9999.0,ENE,8.1,-,N/A,,Clear,60,2013-07-09 11:50:00
1:20 PM,77.0,39.2,26,30.36,-9999.0,NE,9.2,-,N/A,,Clear,40,2013-07-09 12:20:00
1:50 PM,77.0,39.2,26,30.33,-9999.0,NE,9.2,-,N/A,,Clear,40,2013-07-09 12:50:00
2:20 PM,78.8,41.0,26,30.33,-9999.0,NNE,6.9,-,N/A,,Clear,20,2013-07-09 13:20:00
2:50 PM,78.8,39.2,24,30.33,-9999.0,NE,9.2,-,N/A,,Clear,50,2013-07-09 13:50:00
3:20 PM,80.6,41.0,24,30.33,-9999.0,NE,9.2,-,N/A,,Clear,50,2013-07-09 14:20:00
3:50 PM,80,42,16,30.31,19,NE,6.9,,,,,40,2013-07-09 14:50:00
3:50 PM,78.8,42.8,28,30.30,-9999.0,NE,8.1,-,N/A,,Clear,50,2013-07-09 14:50:00
4:20 PM,78.8,42.8,28,30.30,-9999.0,NE,8.1,-,N/A,,Clear,40,2013-07-09 15:20:00
4:50 PM,80.6,42.8,26,30.30,-9999.0,NE,8.1,-,N/A,,Clear,40,2013-07-09 15:50:00
5:20 PM,78.8,44.6,30,30.30,-9999.0,NE,10.4,-,N/A,,Clear,50,2013-07-09 16:20:00
5:50 PM,78.8,44.6,30,30.30,-9999.0,NNE,8.1,-,N/A,,Clear,30,2013-07-09 16:50:00
6:20 PM,78.8,44.6,30,30.27,-9999.0,NNE,8.1,-,N/A,,Clear,30,2013-07-09 17:20:00
6:50 PM,79,44,19,30.27,22,NNE,6.9,,,,,30,2013-07-09 17:50:00
6:50 PM,78.8,44.6,30,30.27,-9999.0,NNE,6.9,-,N/A,,Clear,30,2013-07-09 17:50:00
7:20 PM,77.0,42.8,29,30.27,-9999.0,NNE,8.1,19.6,N/A,,Clear,30,2013-07-09 18:20:00
7:50 PM,77.0,44.6,32,30.27,-9999.0,NNE,8.1,-,N/A,,Clear,20,2013-07-09 18:50:00
8:20 PM,75.2,46.4,36,30.27,-9999.0,NE,8.1,-,N/A,,Clear,40,2013-07-09 19:20:00
8:50 PM,63,50,54,30.28,17,NNE,12.7,,,,,20,2013-07-09 19:50:00
8:50 PM,73.4,48.2,41,30.27,-9999.0,East,6.9,-,N/A,,Clear,80,2013-07-09 19:50:00
9:20 PM,71.6,48.2,43,30.30,-9999.0,ENE,4.6,-,N/A,,Clear,70,2013-07-09 20:20:00
9:50 PM,70,49,36,30.30,19,ENE,5.8,,,,,70,2013-07-09 20:50:00
9:50 PM,69.8,48.2,46,30.30,-9999.0,ENE,5.8,-,N/A,,Clear,70,2013-07-09 20:50:00
10:20 PM,69.8,48.2,46,30.30,-9999.0,ENE,5.8,-,N/A,,Clear,70,2013-07-09 21:20:00
10:50 PM,66.2,48.2,52,30.30,-9999.0,ESE,6.9,-,N/A,,Clear,110,2013-07-09 21:50:00
11:20 PM,66.2,50.0,56,30.30,-9999.0,SE,5.8,-,N/A,,Clear,140,2013-07-09 22:20:00
11:50 PM,64.4,50.0,59,30.30,-9999.0,ESE,6.9,-,N/A,,Clear,120,2013-07-09 22:50:00